Buckland, AK

3:15 PM AKST on November 21, 2017 (GMT -0900)
Buckland

Weather History for PABL - February, 2014

Change the Weather History Date:

Wednesday, February 19, 2014

  Actual Average (PASK) Record (PASK)
Temperature  
Mean Temperature -27 °F -  
Max Temperature -20 °F 6 °F 33 °F (2008)
Min Temperature -34 °F -2 °F -34 °F (2014)
Degree Days  
Heating Degree Days 92    
Moisture  
Dew Point -26 °F    
Average Humidity 96    
Maximum Humidity 100    
Minimum Humidity 91    
Precipitation  
Precipitation 0.00 in - - ()
Sea Level Pressure  
Sea Level Pressure 29.91 in    
Wind  
Wind Speed 1 mph (SSE)    
Max Wind Speed 6 mph    
Max Gust Speed -    
Visibility 10 miles    
Events      
Averages and records for this station are not official NWS values.
T = Trace of Precipitation, MM = Missing Value Source: NWS Daily Summary

Daily Weather History Graph

Daily Weather History Graph

Search for Another Location

Airport or City:

Trip Planner

Search our weather history database for the weather conditions in past years. The results will help you decide how hot, cold, wet, or windy it might be!

Date:

Astronomy

Feb. 19, 2014 Rise Set
Actual Time 9:33 AM AKST 6:24 PM AKST
Civil Twilight 8:39 AM AKST 7:18 PM AKST
Nautical Twilight 7:40 AM AKST 8:18 PM AKST
Astronomical Twilight 6:40 AM AKST 9:17 PM AKST
Moon 12:23 AM AKST (2/19) 9:42 AM AKST (2/19)
Length of Visible Light 10h 38m
Length of Day
8h 50m
Waning Gibbous, 78% of the Moon is Illuminated
Feb 19
Waning Gibbous
Feb 22
Last Quarter
Feb 28
New
Mar 8
First Quarter
Mar 16
Full

Hourly Weather History & Observations

Time (AKST) Temp. Windchill Dew Point Humidity Pressure Visibility Wind Dir Wind Speed Gust Speed Precip Events Conditions
12:16 AM -25.6 °F - - N/A% 29.79 in 10.0 mi Calm Calm - N/A   Clear
12:36 AM -25.6 °F - -25.6 °F 100% 29.79 in 10.0 mi Calm Calm - N/A   Clear
12:56 AM -27.4 °F - - N/A% 29.79 in 10.0 mi Calm Calm - N/A   Clear
1:16 AM -27.4 °F - - N/A% 29.80 in 10.0 mi Calm Calm - N/A   Clear
1:36 AM -27.4 °F - - N/A% 29.80 in 10.0 mi Calm Calm - N/A   Clear
1:56 AM -27.4 °F - - N/A% 29.79 in 10.0 mi Calm Calm - N/A   Clear
2:16 AM -27.4 °F -39.2 °F - N/A% 29.80 in 10.0 mi South 3.5 mph - N/A   Clear
2:36 AM -27.4 °F - - N/A% 29.80 in 10.0 mi Calm Calm - N/A   Clear
2:56 AM -27.4 °F - - N/A% 29.80 in 10.0 mi Calm Calm - N/A   Clear
3:16 AM -29.2 °F - - N/A% 29.80 in 10.0 mi Calm Calm - N/A   Clear
3:36 AM -29.2 °F - - N/A% 29.81 in 10.0 mi Calm Calm - N/A   Clear
3:56 AM -29.2 °F - - N/A% 29.81 in 10.0 mi Calm Calm - N/A   Partly Cloudy
4:16 AM -29.2 °F - - N/A% 29.82 in 10.0 mi Calm Calm - N/A   Mostly Cloudy
4:36 AM -29.2 °F - - N/A% 29.82 in 10.0 mi Calm Calm - N/A   Overcast
4:56 AM -29.2 °F - - N/A% 29.82 in 10.0 mi Calm Calm - N/A   Overcast
5:16 AM -29.2 °F -41.2 °F - N/A% 29.82 in 10.0 mi South 3.5 mph - N/A   Scattered Clouds
5:36 AM -29.2 °F -41.2 °F - N/A% 29.82 in 10.0 mi South 3.5 mph - N/A   Clear
5:56 AM -29.2 °F -41.2 °F - N/A% 29.82 in 10.0 mi SE 3.5 mph - N/A   Clear
6:16 AM -27.4 °F - - N/A% 29.82 in 10.0 mi Calm Calm - N/A   Clear
6:36 AM -27.4 °F - - N/A% 29.82 in 10.0 mi Calm Calm - N/A   Clear
6:56 AM -31.0 °F - - N/A% 29.83 in 10.0 mi Calm Calm - N/A   Clear
7:16 AM -29.2 °F - - N/A% 29.84 in 10.0 mi Calm Calm - N/A   Clear
7:36 AM -29.2 °F - - N/A% 29.84 in 10.0 mi Calm Calm - N/A   Clear
7:56 AM -31.0 °F - - N/A% 29.84 in 10.0 mi Calm Calm - N/A   Clear
8:16 AM -31.0 °F - - N/A% 29.85 in 10.0 mi Calm Calm - N/A   Clear
8:36 AM -32.8 °F - - N/A% 29.85 in 10.0 mi Calm Calm - N/A   Clear
8:56 AM -32.8 °F - - N/A% 29.85 in 10.0 mi Calm Calm - N/A   Clear
9:16 AM -31.0 °F - - N/A% 29.86 in 10.0 mi Calm Calm - N/A   Clear
9:36 AM -31.0 °F - - N/A% 29.87 in 10.0 mi Calm Calm - N/A   Clear
9:56 AM -32.8 °F - - N/A% 29.87 in 10.0 mi Calm Calm - N/A   Clear
10:16 AM -32.8 °F - - N/A% 29.87 in 10.0 mi Calm Calm - N/A   Clear
10:36 AM -31.0 °F - - N/A% 29.88 in 10.0 mi Calm Calm - N/A   Clear
10:56 AM -31.0 °F - - N/A% 29.89 in 10.0 mi Calm Calm - N/A   Clear
11:16 AM -29.2 °F - - N/A% 29.89 in 10.0 mi Calm Calm - N/A   Clear
11:56 AM -27.4 °F - - N/A% 29.90 in 10.0 mi Calm Calm - N/A   Clear
12:16 PM -25.6 °F - -27.4 °F 91% 29.91 in 10.0 mi Calm Calm - N/A   Clear
12:36 PM -25.6 °F - - N/A% 29.91 in 10.0 mi Calm Calm - N/A   Clear
12:56 PM -23.8 °F - - N/A% 29.92 in 10.0 mi Calm Calm - N/A   Clear
1:16 PM -23.8 °F -35.0 °F - N/A% 29.92 in 10.0 mi SE 3.5 mph - N/A   Clear
1:36 PM -20.2 °F - - N/A% 29.92 in 10.0 mi Calm Calm - N/A   Clear
1:56 PM -20.2 °F - - N/A% 29.92 in 10.0 mi Calm Calm - N/A   Clear
2:16 PM -22.0 °F -37.7 °F - N/A% 29.93 in 10.0 mi South 5.8 mph - N/A   Clear
2:36 PM -22.0 °F -37.7 °F - N/A% 29.93 in 10.0 mi SSE 5.8 mph - N/A   Clear
2:56 PM -22.0 °F -33.0 °F - N/A% 29.93 in 10.0 mi SE 3.5 mph - N/A   Clear
3:16 PM -20.2 °F - - N/A% 29.94 in 10.0 mi Calm Calm - N/A   Clear
3:36 PM -20.2 °F -30.9 °F - N/A% 29.94 in 10.0 mi SE 3.5 mph - N/A   Clear
3:56 PM -22.0 °F -33.0 °F - N/A% 29.94 in 10.0 mi South 3.5 mph - N/A   Clear
4:16 PM -22.0 °F -33.0 °F - N/A% 29.95 in 10.0 mi South 3.5 mph - N/A   Clear
4:36 PM -22.0 °F -33.0 °F - N/A% 29.95 in 10.0 mi South 3.5 mph - N/A   Clear
4:56 PM -22.0 °F -33.0 °F - N/A% 29.95 in 10.0 mi SSE 3.5 mph - N/A   Clear
5:16 PM -23.8 °F -37.7 °F - N/A% 29.95 in 10.0 mi SE 4.6 mph - N/A   Clear
5:36 PM -23.8 °F -35.0 °F - N/A% 29.96 in 10.0 mi SE 3.5 mph - N/A   Clear
5:56 PM -23.8 °F - - N/A% 29.97 in 10.0 mi Calm Calm - N/A   Clear
6:16 PM -25.6 °F - - N/A% 29.98 in 10.0 mi Calm Calm - N/A   Clear
6:36 PM -25.6 °F - - N/A% 29.98 in 10.0 mi Calm Calm - N/A   Clear
6:56 PM -25.6 °F - - N/A% 29.99 in 10.0 mi Calm Calm - N/A   Clear
7:16 PM -27.4 °F - - N/A% 29.99 in 10.0 mi Calm Calm - N/A   Clear
7:36 PM -29.2 °F -44.0 °F - N/A% 30.00 in 10.0 mi South 4.6 mph - N/A   Clear
7:56 PM -29.2 °F -41.2 °F - N/A% 30.00 in 10.0 mi SSE 3.5 mph - N/A   Clear
8:16 PM -29.2 °F -41.2 °F - N/A% 30.01 in 10.0 mi SE 3.5 mph - N/A   Clear
8:36 PM -29.2 °F - - N/A% 30.01 in 10.0 mi Calm Calm - N/A   Clear
8:56 PM -29.2 °F - - N/A% 30.02 in 10.0 mi Calm Calm - N/A   Clear
9:16 PM -32.8 °F - - N/A% 30.02 in 10.0 mi Calm Calm - N/A   Clear
9:36 PM -31.0 °F - - N/A% 30.03 in 10.0 mi Calm Calm - N/A   Clear
9:56 PM -31.0 °F - - N/A% 30.04 in 10.0 mi Calm Calm - N/A   Clear
10:16 PM -32.8 °F - - N/A% 30.04 in 10.0 mi Calm Calm - N/A   Clear
10:36 PM -32.8 °F - - N/A% 30.04 in 10.0 mi Calm Calm - N/A   Clear
10:56 PM -34.6 °F - - N/A% 30.05 in 10.0 mi Calm Calm - N/A   Clear
11:16 PM -34.6 °F - - N/A% 30.06 in 10.0 mi Calm Calm - N/A   Clear
11:36 PM -34.6 °F - - N/A% 30.06 in 10.0 mi Calm Calm - N/A   Clear
11:56 PM -34.6 °F - - N/A% 30.07 in 10.0 mi Calm Calm - N/A   Clear